Location: Tel Aviv
(32.0670°N, 34.7670°E)
Time: 14:25:54
(UTC+03:00)

Explorer 11/Cluster Stage 4 - Pass Details

Date: 16 September 2024
Orbit: 464 x 1208 km, 28.8° (Epoch: 06 October)

Event Time Altitude Azimuth Distance (km) Brightness Sun altitude
Rises 13:33:59 0° 265° (W) 4,108 10.5 57.3°
Reaches altitude 10° 13:38:39 10° 242° (WSW) 3,119 10.2 56.8°
Maximum altitude 13:42:14 14° 214° (SW) 2,787 10.2 56.4°
Drops below altitude 10° 13:45:43 10° 186° (S) 2,989 10.2 56.0°
Sets 13:50:02 0° 162° (SSE) 3,813 10.4 55.5°
